SXS63W LTAJ-LTAI

Flight info

Callsign SXS63W
Flight time 0h 59m
Altitude 36000
Route KOZAN W74 BABLI UT470 ADKAR DCT MANAZ/N0464F350 UW74 MUT/N0464F360 UR55 TEWHE
Aircraft B738/M-SDE2E3FGHIRWXY/LB1

Departure

Time 2026-05-06 08:52
Airport Gaziantep Oğuzeli International Airport (LTAJ)

Arrival

Time 2026-05-06 09:51
Airport Antalya International Airport (LTAI)
Time Latitude Longitude Altitude Speed Heading
2026-05-06 08:34 36.94516 37.47767 2319 ft 0 kts 192°
2026-05-06 08:42 36.94519 37.47767 2319 ft 2 kts 193°
2026-05-06 08:42 36.94534 37.47772 2319 ft 2 kts 192°
2026-05-06 08:42 36.94548 37.47776 2319 ft 2 kts 209°
2026-05-06 08:42 36.94560 37.47788 2319 ft 2 kts 227°
2026-05-06 08:43 36.94568 37.47803 2319 ft 2 kts 247°
2026-05-06 08:43 36.94572 37.47821 2319 ft 2 kts 266°
2026-05-06 08:43 36.94571 37.47837 2319 ft 0 kts 282°
2026-05-06 08:43 36.94570 37.47845 2319 ft 0 kts 285°
2026-05-06 08:44 36.94569 37.47845 2319 ft 0 kts 285°
2026-05-06 08:46 36.94570 37.47843 2319 ft 1 kts 285°
2026-05-06 08:47 36.94575 37.47817 2319 ft 3 kts 284°
2026-05-06 08:47 36.94584 37.47797 2319 ft 2 kts 307°
2026-05-06 08:47 36.94591 37.47789 2319 ft 1 kts 329°
2026-05-06 08:47 36.94623 37.47788 2319 ft 8 kts 14°
2026-05-06 08:48 36.94635 37.47865 2319 ft 10 kts 104°
2026-05-06 08:48 36.94611 37.47972 2319 ft 16 kts 105°
2026-05-06 08:48 36.94573 37.48147 2319 ft 23 kts 105°
2026-05-06 08:48 36.94531 37.48339 2319 ft 22 kts 104°
2026-05-06 08:49 36.94489 37.48526 2319 ft 22 kts 105°
2026-05-06 08:49 36.94450 37.48708 2319 ft 21 kts 105°
2026-05-06 08:49 36.94411 37.48884 2319 ft 20 kts 105°
2026-05-06 08:49 36.94373 37.49057 2319 ft 20 kts 105°
2026-05-06 08:50 36.94337 37.49222 2319 ft 19 kts 105°
2026-05-06 08:50 36.94313 37.49371 2319 ft 14 kts 71°
2026-05-06 08:50 36.94397 37.49424 2319 ft 13 kts 14°
2026-05-06 08:50 36.94474 37.49395 2319 ft 12 kts 290°
2026-05-06 08:51 36.94499 37.49286 2319 ft 14 kts 285°
2026-05-06 08:51 36.94578 37.48916 2319 ft 78 kts 287°
2026-05-06 08:51 36.94776 37.48001 2319 ft 138 kts 285°
2026-05-06 08:51 36.95067 37.46641 2414 ft 177 kts 285°
2026-05-06 08:52 36.95356 37.45154 3027 ft 179 kts 282°
2026-05-06 08:52 36.95414 37.43609 3681 ft 183 kts 266°
2026-05-06 08:52 36.95311 37.42015 4160 ft 190 kts 268°
2026-05-06 08:52 36.95284 37.40300 4567 ft 201 kts 271°
2026-05-06 08:53 36.95310 37.38523 4967 ft 212 kts 272°
2026-05-06 08:53 36.95335 37.36636 5332 ft 226 kts 271°
2026-05-06 08:53 36.95349 37.34569 5650 ft 246 kts 271°
2026-05-06 08:53 36.95363 37.32404 6162 ft 257 kts 271°
2026-05-06 08:54 36.95378 37.30112 6654 ft 270 kts 271°
2026-05-06 08:54 36.95392 37.27757 7283 ft 275 kts 271°
2026-05-06 08:54 36.95406 37.25363 8025 ft 276 kts 270°
2026-05-06 08:54 36.95419 37.22998 8797 ft 276 kts 270°
2026-05-06 08:55 36.95432 37.20615 9550 ft 276 kts 270°
2026-05-06 08:55 36.95444 37.18206 10246 ft 279 kts 270°
2026-05-06 08:55 36.95456 37.15759 10685 ft 291 kts 270°
2026-05-06 08:55 36.95454 37.13195 11106 ft 304 kts 269°
2026-05-06 08:56 36.95435 37.10482 11495 ft 318 kts 269°
2026-05-06 08:56 36.95414 37.07647 11867 ft 332 kts 269°
2026-05-06 08:56 36.95398 37.04724 12209 ft 347 kts 269°
2026-05-06 08:56 36.95384 37.01666 12644 ft 359 kts 269°
2026-05-06 08:57 36.95373 36.98504 13246 ft 366 kts 269°
2026-05-06 08:57 36.95364 36.95335 13951 ft 369 kts 269°
2026-05-06 08:57 36.95354 36.92145 14643 ft 373 kts 269°
2026-05-06 08:57 36.95342 36.88878 15401 ft 376 kts 269°
2026-05-06 08:58 36.95330 36.85628 16117 ft 379 kts 269°
2026-05-06 08:58 36.95318 36.82359 16778 ft 383 kts 269°
2026-05-06 08:58 36.95305 36.79012 17495 ft 385 kts 269°
2026-05-06 08:58 36.95291 36.75684 18157 ft 388 kts 269°
2026-05-06 08:59 36.95277 36.72324 18815 ft 392 kts 269°
2026-05-06 08:59 36.95260 36.68926 19474 ft 395 kts 269°
2026-05-06 08:59 36.95243 36.65447 20089 ft 399 kts 269°
2026-05-06 08:59 36.95224 36.61989 20698 ft 403 kts 270°
2026-05-06 09:00 36.95204 36.58469 21331 ft 405 kts 270°
2026-05-06 09:00 36.95175 36.54984 21887 ft 409 kts 269°
2026-05-06 09:00 36.95000 36.51407 22415 ft 413 kts 264°
2026-05-06 09:00 36.94473 36.47884 22940 ft 418 kts 256°
2026-05-06 09:01 36.93527 36.44468 23483 ft 422 kts 249°
2026-05-06 09:01 36.92291 36.41117 24001 ft 426 kts 246°
2026-05-06 09:01 36.90926 36.37830 24534 ft 429 kts 244°
2026-05-06 09:01 36.89498 36.34560 25008 ft 432 kts 243°
2026-05-06 09:02 36.88032 36.31265 25526 ft 435 kts 243°
2026-05-06 09:02 36.86578 36.28006 26078 ft 436 kts 243°
2026-05-06 09:02 36.85104 36.24692 26588 ft 437 kts 243°
2026-05-06 09:02 36.83622 36.21345 27051 ft 440 kts 243°
2026-05-06 09:03 36.82162 36.18034 27513 ft 442 kts 243°
2026-05-06 09:03 36.80673 36.14647 27953 ft 444 kts 243°
2026-05-06 09:03 36.79206 36.11305 28443 ft 445 kts 243°
2026-05-06 09:03 36.77734 36.07885 28933 ft 445 kts 245°
2026-05-06 09:04 36.76512 36.04428 29589 ft 439 kts 251°
2026-05-06 09:04 36.75697 36.00787 30163 ft 435 kts 260°
2026-05-06 09:04 36.75319 35.97049 30612 ft 433 kts 266°
2026-05-06 09:04 36.75259 35.93361 31044 ft 432 kts 271°
2026-05-06 09:05 36.75389 35.89602 31485 ft 430 kts 273°
2026-05-06 09:05 36.75608 35.85906 31902 ft 429 kts 274°
2026-05-06 09:05 36.75859 35.82214 32260 ft 429 kts 274°
2026-05-06 09:05 36.76112 35.78527 32649 ft 428 kts 274°
2026-05-06 09:06 36.76356 35.74850 33061 ft 426 kts 274°
2026-05-06 09:06 36.76586 35.71193 33411 ft 425 kts 274°
2026-05-06 09:06 36.76806 35.67516 33804 ft 423 kts 273°
2026-05-06 09:06 36.77014 35.63879 34158 ft 421 kts 273°
2026-05-06 09:07 36.77215 35.60217 34461 ft 421 kts 273°
2026-05-06 09:07 36.77408 35.56587 34777 ft 419 kts 273°
2026-05-06 09:07 36.77600 35.52923 35092 ft 417 kts 273°
2026-05-06 09:07 36.77786 35.49325 35314 ft 417 kts 273°
2026-05-06 09:08 36.77970 35.45693 35539 ft 417 kts 273°
2026-05-06 09:08 36.78153 35.42080 35755 ft 417 kts 273°
2026-05-06 09:08 36.78334 35.38477 35995 ft 417 kts 273°
2026-05-06 09:09 36.78696 35.31201 36062 ft 423 kts 273°
2026-05-06 09:09 36.79058 35.23837 36064 ft 421 kts 273°
2026-05-06 09:10 36.79650 35.16617 36064 ft 423 kts 278°
2026-05-06 09:10 36.80742 35.09457 36064 ft 422 kts 281°
2026-05-06 09:11 36.81937 35.02307 36058 ft 421 kts 281°
2026-05-06 09:11 36.83111 34.95146 36060 ft 422 kts 281°
2026-05-06 09:12 36.84256 34.87968 36057 ft 421 kts 281°
2026-05-06 09:12 36.85381 34.80810 36050 ft 422 kts 281°
2026-05-06 09:13 36.86492 34.73667 36049 ft 423 kts 281°
2026-05-06 09:13 36.87607 34.66453 36057 ft 424 kts 281°
2026-05-06 09:14 36.88721 34.59222 36063 ft 424 kts 281°
2026-05-06 09:14 36.89825 34.52016 36070 ft 424 kts 281°
2026-05-06 09:15 36.90883 34.44814 36080 ft 424 kts 279°
2026-05-06 09:15 36.91318 34.37477 36087 ft 424 kts 271°
2026-05-06 09:16 36.91114 34.30182 36098 ft 425 kts 268°
2026-05-06 09:16 36.90763 34.22805 36100 ft 423 kts 267°
2026-05-06 09:17 36.90411 34.15513 36102 ft 424 kts 268°
2026-05-06 09:17 36.90068 34.08139 36097 ft 425 kts 268°
2026-05-06 09:18 36.89734 34.00812 36088 ft 425 kts 268°
2026-05-06 09:18 36.89399 33.93440 36088 ft 426 kts 268°
2026-05-06 09:19 36.89062 33.86087 36079 ft 425 kts 268°
2026-05-06 09:19 36.88720 33.78731 36081 ft 425 kts 268°
2026-05-06 09:20 36.88376 33.71407 36076 ft 426 kts 268°
2026-05-06 09:20 36.88026 33.64061 36077 ft 425 kts 268°
2026-05-06 09:21 36.87670 33.56700 36079 ft 425 kts 268°
2026-05-06 09:21 36.87309 33.49327 36076 ft 425 kts 268°
2026-05-06 09:22 36.86945 33.41973 36084 ft 425 kts 268°
2026-05-06 09:22 36.86577 33.34620 36084 ft 425 kts 268°
2026-05-06 09:23 36.86293 33.27312 36083 ft 425 kts 271°
2026-05-06 09:23 36.86457 33.19920 36076 ft 424 kts 274°
2026-05-06 09:24 36.86761 33.12592 36071 ft 425 kts 274°
2026-05-06 09:24 36.87049 33.05255 36063 ft 424 kts 274°
2026-05-06 09:25 36.87309 32.97896 36051 ft 425 kts 274°
2026-05-06 09:25 36.87547 32.90533 36058 ft 425 kts 274°
2026-05-06 09:26 36.87772 32.83216 36070 ft 425 kts 274°
2026-05-06 09:26 36.87992 32.75853 36074 ft 424 kts 274°
2026-05-06 09:27 36.88206 32.68498 36083 ft 425 kts 274°
2026-05-06 09:27 36.88414 32.61165 35894 ft 423 kts 274°
2026-05-06 09:27 36.88514 32.57530 35543 ft 419 kts 274°
2026-05-06 09:28 36.88613 32.53927 34955 ft 420 kts 274°
2026-05-06 09:28 36.88714 32.50256 34290 ft 423 kts 275°
2026-05-06 09:28 36.88815 32.46585 33456 ft 427 kts 275°
2026-05-06 09:28 36.88916 32.42888 32635 ft 430 kts 275°
2026-05-06 09:29 36.89019 32.39152 31806 ft 433 kts 275°
2026-05-06 09:29 36.89120 32.35405 30964 ft 435 kts 275°
2026-05-06 09:29 36.89220 32.31630 30090 ft 438 kts 275°
2026-05-06 09:29 36.89319 32.27873 29182 ft 441 kts 274°
2026-05-06 09:30 36.89418 32.24052 28242 ft 444 kts 274°
2026-05-06 09:30 36.89516 32.20204 27266 ft 447 kts 274°
2026-05-06 09:30 36.89614 32.16343 26308 ft 448 kts 274°
2026-05-06 09:30 36.89707 32.12527 25906 ft 437 kts 274°
2026-05-06 09:31 36.89794 32.08786 25665 ft 424 kts 274°
2026-05-06 09:31 36.89859 32.05166 25511 ft 409 kts 272°
2026-05-06 09:31 36.89681 32.01714 25364 ft 398 kts 264°
2026-05-06 09:31 36.88963 31.98394 25168 ft 391 kts 251°
2026-05-06 09:32 36.87685 31.95467 25082 ft 381 kts 239°
2026-05-06 09:32 36.86068 31.92892 25059 ft 367 kts 235°
2026-05-06 09:32 36.84728 31.90300 24542 ft 353 kts 251°
2026-05-06 09:32 36.84036 31.87419 23820 ft 344 kts 263°
2026-05-06 09:33 36.83668 31.84514 23194 ft 340 kts 265°
2026-05-06 09:33 36.83326 31.81593 22400 ft 338 kts 264°
2026-05-06 09:33 36.82936 31.78752 21683 ft 335 kts 263°
2026-05-06 09:33 36.82487 31.75914 20951 ft 333 kts 262°
2026-05-06 09:34 36.81995 31.73105 20232 ft 330 kts 260°
2026-05-06 09:34 36.81484 31.70365 19534 ft 327 kts 260°
2026-05-06 09:34 36.80950 31.67602 18807 ft 325 kts 259°
2026-05-06 09:34 36.80422 31.64920 18099 ft 323 kts 259°
2026-05-06 09:35 36.80016 31.62871 17575 ft 321 kts 259°
2026-05-06 09:35 36.79969 31.62630 18244 ft 321 kts 256°
2026-05-06 09:35 36.79449 31.59959 17521 ft 321 kts 256°
2026-05-06 09:35 36.78914 31.57280 16857 ft 318 kts 256°
2026-05-06 09:36 36.78743 31.56437 16655 ft 317 kts 256°
2026-05-06 09:36 36.78574 31.55600 15253 ft 315 kts 255°
2026-05-06 09:36 36.78290 31.54194 15054 ft 308 kts 255°
2026-05-06 09:37 36.77784 31.51761 15183 ft 308 kts 258°
2026-05-06 09:37 36.77255 31.49161 14771 ft 311 kts 258°
2026-05-06 09:37 36.76734 31.46570 14350 ft 309 kts 258°
2026-05-06 09:37 36.76218 31.43996 13962 ft 307 kts 258°
2026-05-06 09:38 36.75698 31.41416 13576 ft 304 kts 258°
2026-05-06 09:38 36.75191 31.38911 13208 ft 302 kts 258°
2026-05-06 09:38 36.74675 31.36363 12811 ft 300 kts 258°
2026-05-06 09:38 36.74173 31.33887 12435 ft 298 kts 258°
2026-05-06 09:39 36.73663 31.31373 12068 ft 296 kts 258°
2026-05-06 09:39 36.73160 31.28899 11683 ft 294 kts 258°
2026-05-06 09:39 36.72662 31.26451 11304 ft 292 kts 258°
2026-05-06 09:39 36.72166 31.24019 10949 ft 290 kts 257°
2026-05-06 09:40 36.71670 31.21586 10580 ft 289 kts 257°
2026-05-06 09:40 36.71176 31.19169 10222 ft 287 kts 257°
2026-05-06 09:40 36.70211 31.14454 9688 ft 277 kts 257°
2026-05-06 09:41 36.69737 31.12143 9313 ft 276 kts 257°
2026-05-06 09:41 36.69266 31.09847 8988 ft 274 kts 257°
2026-05-06 09:41 36.68798 31.07563 8647 ft 274 kts 257°
2026-05-06 09:41 36.68325 31.05265 8296 ft 272 kts 257°
2026-05-06 09:42 36.67860 31.03003 7961 ft 270 kts 257°
2026-05-06 09:42 36.67397 31.00753 7632 ft 269 kts 257°
2026-05-06 09:42 36.66928 30.98483 7291 ft 267 kts 257°
2026-05-06 09:42 36.66470 30.96262 6969 ft 266 kts 257°
2026-05-06 09:43 36.66015 30.94052 6633 ft 264 kts 257°
2026-05-06 09:43 36.65562 30.91850 6307 ft 262 kts 257°
2026-05-06 09:43 36.65106 30.89647 5986 ft 261 kts 257°
2026-05-06 09:43 36.64655 30.87470 5665 ft 260 kts 257°
2026-05-06 09:44 36.64208 30.85319 5389 ft 257 kts 257°
2026-05-06 09:44 36.63768 30.83198 5272 ft 246 kts 257°
2026-05-06 09:44 36.63350 30.81182 5196 ft 234 kts 257°
2026-05-06 09:44 36.62990 30.79265 5126 ft 227 kts 263°
2026-05-06 09:45 36.63026 30.77294 5066 ft 225 kts 290°
2026-05-06 09:45 36.63881 30.75790 4986 ft 209 kts 327°
2026-05-06 09:45 36.65177 30.75096 4730 ft 204 kts 350°
2026-05-06 09:45 36.66577 30.75008 4419 ft 203 kts
2026-05-06 09:46 36.67961 30.75326 4219 ft 197 kts 12°
2026-05-06 09:46 36.69292 30.75677 3960 ft 195 kts 13°
2026-05-06 09:46 36.70604 30.76040 3697 ft 194 kts 13°
2026-05-06 09:46 36.71921 30.76428 3424 ft 193 kts 16°
2026-05-06 09:47 36.73199 30.76882 3164 ft 192 kts 14°
2026-05-06 09:47 36.74516 30.77175 2903 ft 189 kts
2026-05-06 09:47 36.75811 30.77343 2648 ft 187 kts
2026-05-06 09:47 36.77089 30.77503 2403 ft 184 kts
2026-05-06 09:48 36.78361 30.77681 2160 ft 182 kts
2026-05-06 09:48 36.79614 30.77854 1909 ft 176 kts
2026-05-06 09:48 36.80789 30.78009 1701 ft 163 kts
2026-05-06 09:48 36.81889 30.78160 1493 ft 162 kts
2026-05-06 09:49 36.82995 30.78310 1278 ft 161 kts
2026-05-06 09:49 36.84117 30.78413 1121 ft 160 kts
2026-05-06 09:49 36.85226 30.78565 899 ft 162 kts 10°
2026-05-06 09:49 36.86340 30.78759 645 ft 160 kts
2026-05-06 09:50 36.87441 30.78908 434 ft 161 kts
2026-05-06 09:50 36.88573 30.79069 225 ft 161 kts
2026-05-06 09:50 36.89625 30.79212 176 ft 130 kts
2026-05-06 09:50 36.90295 30.79303 176 ft 67 kts
2026-05-06 09:51 36.90695 30.79362 175 ft 45 kts
2026-05-06 09:51 36.90907 30.79395 172 ft 21 kts 15°
2026-05-06 09:51 36.91039 30.79488 167 ft 20 kts 33°
2026-05-06 09:51 36.91129 30.79576 166 ft 14 kts 40°
2026-05-06 09:52 36.91205 30.79657 164 ft 12 kts 56°
2026-05-06 09:52 36.91209 30.79749 164 ft 9 kts 97°
2026-05-06 09:52 36.91201 30.79828 164 ft 9 kts 98°
2026-05-06 09:52 36.91193 30.79894 166 ft 5 kts 98°
2026-05-06 09:53 36.91190 30.79923 167 ft 3 kts 98°
2026-05-06 09:53 36.91194 30.79953 168 ft 5 kts 50°
2026-05-06 09:53 36.91208 30.79992 170 ft 3 kts 87°
2026-05-06 09:53 36.91207 30.80022 171 ft 2 kts 97°
2026-05-06 09:54 36.91207 30.80029 171 ft 0 kts 97°
2026-05-06 09:54 36.91206 30.80034 171 ft 0 kts 97°
2026-05-06 09:54 36.91205 30.80046 172 ft 0 kts 97°
2026-05-06 09:54 36.91205 30.80048 172 ft 0 kts 97°